Home > Weather > Cumberland County > Past weeks

Flag for Canada Weather for the Past 2 Weeks in Cumberland County, Nova Scotia, Canada

Now
44 °F

Quite cool.


Feels Like: 39 °F
Forecast: 36 / 43 °F
Wind: 9 mph from Northeast

Location: Kentville

Current Time: May 5, 2016 at 3:40:43 PM

Latest Report: May 5, 2016 at 3:00 PM


Visibility: N/A

Pressure: 29.83 "Hg

Humidity: 90%

Dew Point: 41 °F

Location of Cumberland CountyLocation

Historic Weather in Cumberland County — Graph

°F

Cumberland County Temperature Yesterday

Maximum temperature yesterday: 47 °F (at 7:00 PM)
Minimum temperature yesterday: 36 °F (at 3:00 AM)
Average temperature yesterday: 42 °F

High & Low Weather Summary for the Past Weeks

 TemperatureHumidityPressure
High70 °F (Apr 22, 4:00 PM)100% (Apr 23, 10:00 PM)30.30 "Hg (Apr 23, 10:00 PM)
Low25 °F (Apr 26, 6:00 AM)12% (Apr 30, 7:00 PM)29.72 "Hg (Apr 21, 7:00 PM)
Average43 °F59%29.95 "Hg
* Reported Apr 20 2:00 PM — May 5 2:00 PM, Cumberland County, Weather by CustomWeather, © 2016

Note: Actual official high and low records may vary slightly from our data, if they occured in-between our weather recording intervals... More about our weather records

Advertising

Cumberland County Weather History for the Previous 24 Hours

Scroll right to see more
 ConditionsComfort  
Time TempWeatherWind HumidityBarometerVisibility
2:00 PM
Thu, May 5
44 °FQuite cool.9 mph93%29.83 "HgN/A
1:00 PM43 °FQuite cool.10 mph96%29.84 "HgN/A
12:00 PM42 °FQuite cool.8 mph98%29.83 "HgN/A
11:00 AM41 °FQuite cool.9 mph98%29.86 "HgN/A
10:00 AM41 °FQuite cool.8 mph99%29.85 "HgN/A
9:00 AM40 °FChilly.8 mph99%29.86 "HgN/A
8:00 AM40 °FChilly.8 mph99%29.86 "HgN/A
7:00 AM39 °FChilly.8 mph98%29.88 "HgN/A
6:00 AM39 °FChilly.7 mph98%29.90 "HgN/A
5:00 AM38 °FChilly.7 mph98%29.91 "HgN/A
4:00 AM38 °FChilly.6 mph98%29.91 "HgN/A
3:00 AM39 °FChilly.7 mph95%29.92 "HgN/A
2:00 AM40 °FQuite cool.6 mph91%29.94 "HgN/A
1:00 AM40 °FQuite cool.5 mph89%29.95 "HgN/A
12:00 AM42 °FQuite cool.6 mph81%29.95 "HgN/A
11:00 PM
Wed, May 4
43 °FQuite cool.7 mph80%29.97 "HgN/A
10:00 PM43 °FQuite cool.7 mph79%29.99 "HgN/A
9:00 PM44 °FQuite cool.7 mph80%30.00 "HgN/A
8:00 PM44 °FQuite cool.8 mph81%29.98 "HgN/A
7:00 PM47 °FCool.5 mph72%29.96 "HgN/A
6:00 PM46 °FCool.8 mph73%29.95 "HgN/A
5:00 PM46 °FCool.7 mph71%29.97 "HgN/A
4:00 PM46 °FCool.8 mph71%29.98 "HgN/A
3:00 PM45 °FCool.8 mph75%29.95 "HgN/A
Weather by CustomWeather, © 2016

See weather overviewHow to use our weather pages